Reflectivity
26 9 14 15 20 15 6 -7 -19 -7 23 26 19 10 23 26 29 29 30 14 19 -20 -20 -20 7 1 -14 -20 -18 -2 -20 -20 -20 23 -14 -20 -20 -19 -8 -4 -20 -20 -20 -20
13 -1 15 18 20 12 4 -20 1 26 9 15 8 -8 19 30 16 23 30 18 10 -20 -20 -10 -12 -20 -20 -20 -20 5 -20 -20 1 -20 7 -9 19 -20 -20 -20 -20 -20 -20 -20
20 13 13 18 17 10 14 -20 6 25 22 11 11 32 27 33 28 23 28 25 -1 -20 -20 -20 -20 5 -20 -20 -20 -20 -17 -20 -20 -20 -20 -20 -20 -20 -20 -20 -20 -20 -20 -20
18 -4 13 13 17 9 15 -20 -20 -16 17 8 -17 25 32 36 36 30 32 32 6 -20 -20 -20 -20 -3 -20 -20 -20 -20 -20 -20 -20 -20 -20 -20 -20 -20 -20 -20 -20 -20 -20 -20
19 -13 16 8 8 23 16 -16 -20 -20 -20 -20 -20 18 32 32 30 29 29 15 -15 -20 -20 -20 -20 7 -20 -20 -20 -20 -20 -20 -20 -20 -20 -20 -20 -20 -20 -20 -20 -20 -20 -20
19 2 16 15 5 17 6 -5 -20 -20 -20 -20 -14 27 26 24 17 8 -11 2 -20 -18 -20 -20 -20 -20 -20 -20 -20 -8 -4 -18 -20 -20 -20 -20 -20 -20 -20 -20 -20 -20 -20 -20
29 -5 15 13 8 3 -2 -2 -20 -20 -20 -20 -20 20 28 25 13 14 -1 -12 -20 -20 6 5 -20 -20 -20 -20 -20 -2 -20 -20 -20 -20 -20 -18 -20 -20 -20 -20 -20 -20 -20 -20
26 -4 6 -19 6 10 7 6 -7 -20 -20 -20 15 16 22 29 25 18 -20 -19 -20 -20 -20 10 14 28 3 14 1 -4 -20 -20 -20 -20 -20 -20 -20 -20 -20 -20 -20 -20 -20 -20
21 -8 4 -20 10 10 17 -2 8 -20 -20 -20 17 12 -3 24 28 28 5 10 -13 -20 -20 -20 -10 24 20 32 15 13 16 -6 -11 -19 -20 -20 -20 -20 -20 -20 -20 -20 -20 -20
10 -17 -5 -20 -9 19 15 -1 -12 -20 -20 -20 -14 10 -20 -20 21 25 28 26 16 -5 -14 -20 -15 -6 -20 -20 -7 -20 13 21 22 3 19 -20 -19 -20 -20 -20 -20 -20 -20 -20
32 -9 -18 -20 5 4 21 3 -20 -20 -20 -20 1 -8 -20 -20 8 35 13 24 28 12 24 -20 -20 -20 -20 -12 -20 -20 -4 -5 -17 8 15 -20 -20 -20 -20 -20 -20 -20 -20 -20
27 10 -20 -20 -15 9 23 16 -20 -20 -20 -19 9 -19 -20 -20 -2 32 27 24 22 25 26 16 10 -20 -20 8 -20 -17 -18 -17 -20 -20 -20 -20 -20 -20 -20 -20 -20 -20 -20 -20
19 10 -20 -17 -16 -1 20 15 -10 -20 -20 -20 -20 -20 -20 -18 -17 -4 -20 -20 -13 15 28 24 8 -15 -11 -10 -20 -16 -20 -20 -20 -20 -20 -20 -20 -20 -20 -20 -20 -20 -20 -20
19 10 -20 -16 -8 5 24 14 9 -20 -20 -20 -20 -20 -20 -20 -19 -16 -20 -20 -20 -20 -20 -20 -20 -20 -20 -20 -20 -20 -20 -20 -20 -20 -20 -20 -20 -20 -20 -20 -20 -20 -20 -20
14 12 -4 -20 -18 11 23 14 24 -5 -20 -20 -11 -20 -20 -20 -20 7 1 -20 -20 -20 -20 -20 -20 -20 -20 -20 -20 -20 -20 -20 -20 -20 -20 -20 -20 -20 -20 -20 -20 -20 -20 -20
18 -2 10 -17 -4 16 23 24 26 26 26 -20 -20 -20 -18 -20 -20 -20 -20 -20 -1 -18 -20 -20 -20 -20 -20 -20 -20 -20 -20 -20 -20 -20 -20 -20 -20 -20 -20 -20 -20 -20 -20 -20
5 6 9 -20 -6 20 23 7 4 27 28 24 -15 -20 -20 -20 -20 -20 -20 -20 -20 -20 -18 -20 -20 -20 -20 -20 -20 -20 -20 -20 -20 -20 -20 -20 -20 -20 -20 -20 -20 -20 -20 -20
9 7 -6 12 11 18 8 -16 -20 6 4 11 -2 -7 -20 -20 -20 -20 -20 -20 -20 -20 -20 -20 -20 -20 -20 -20 -20 -20 -20 -20 -20 -20 -20 -20 -20 -20 -20 -20 -20 -20 -20 -20
11 -8 13 16 16 -1 -16 -20 -20 -20 11 14 0 -19 -20 -20 -16 -20 -20 -20 -20 -20 -20 -20 -20 -20 -20 -20 -20 -20 -20 -20 -20 -20 -20 -20 -20 -20 -20 -20 -20 -20 -20 -20
13 -3 -8 14 19 23 -5 -20 -15 5 -5 -20 -20 -20 -20 -19 -17 -19 -20 -20 -12 2 -10 -20 -13 -20 -20 -20 -20 -20 -20 -20 -20 -20 -20 -20 -20 -20 -20 -20 -20 -20 -20 -20
9 -3 -5 7 -1 1 -3 -20 -20 -17 -8 -20 -20 -20 -20 -20 -3 6 -6 -8 -20 -20 -20 -19 -20 -20 -20 -20 -20 -20 -20 -20 -20 -20 -20 -20 -20 -20 -20 -20 -20 -20 -20 -20
7 -5 7 3 -3 -17 -20 -20 -20 -20 -20 -20 -20 -20 -20 -20 -20 -20 -20 -20 -20 -20 -20 -20 -20 -20 -20 -20 -20 -20 -20 -20 -20 -20 -20 -20 -20 -20 -20 -20 -20 -20 -20 -20
28 19 24 19 18 -20 -20 -20 -14 -7 -20 -20 -15 -20 -20 -20 -20 -20 -20 -20 -20 -20 -3 -18 -20 -20 -20 -20 -20 -20 -20 -20 -20 -20 -20 -20 -20 -20 -20 -20 -20 -20 -20 -20
32 31 19 3 14 -9 -20 -20 -20 -19 -19 7 2 -17 -20 -20 -20 -20 -20 -20 -20 -20 -20 -20 -20 -20 -20 -20 -20 -20 -20 -20 -20 -20 -20 -20 -20 -20 -20 -20 -20 -20 -20 -20
26 12 -2 -20 -20 -20 -20 -20 -20 -6 0 -3 -16 -20 -20 -20 -20 -20 -20 -9 -20 -20 -20 -20 -20 -20 -20 -20 -20 -20 -20 -20 -20 -20 -20 -20 -20 -20 -20 -20 -20 -20 -20 -20
28 6 3 -20 -20 -20 -20 -20 -20 -5 -6 -20 -20 -20 -20 -20 -20 -20 -20 -20 -20 -20 -20 -20 -20 -20 -20 -20 -20 -20 -20 -20 -20 -20 -20 -20 -20 -20 -20 -20 -20 -20 -20 -20
20 7 -17 -20 -20 -20 -20 -20 -20 -0 -12 -20 -20 -20 -20 -20 -20 -20 -20 -20 -20 -20 -20 -20 -20 -20 -20 -20 -20 -20 -20 -20 -20 -20 -20 -20 -20 -20 -20 -20 -20 -20 -20 -20
Wind_Speed
15 12 11 11 10 12 9 4 4 6 13 6 4 11 7 5 8 16 11 6 12 16 20 16 16 15 10 19 17 8 9 8 6 2 2 5 10 11 14 5 6 1 4 1
15 12 11 11 14 17 4 3 2 6 8 6 7 8 11 8 6 10 14 12 16 14 17 11 13 14 15 22 21 11 12 6 9 6 4 3 6 6 15 7 3 10 9 4
14 14 12 11 13 16 3 4 4 4 6 2 3 9 11 10 15 14 10 11 15 18 19 9 18 10 12 21 23 13 4 4 12 11 4 11 10 17 15 17 12 9 11 6
14 15 13 10 14 17 4 4 5 4 6 11 14 9 7 13 7 15 15 11 9 20 13 18 13 14 11 14 17 12 6 7 7 6 5 15 14 18 21 22 21 14 15 17
14 16 14 12 14 17 2 4 4 3 4 9 12 9 7 8 8 8 10 12 20 20 13 12 19 17 15 13 18 20 9 7 5 4 3 12 11 19 23 26 22 22 19 15
14 17 14 13 14 11 2 1 1 3 2 4 4 3 4 5 3 2 3 19 19 16 16 10 15 15 11 12 20 19 13 6 6 4 3 5 10 17 19 21 20 20 20 20
16 17 16 14 17 12 2 2 2 3 5 6 4 3 2 3 0 3 4 12 17 6 9 13 14 11 4 17 14 8 12 11 1 3 6 5 1 3 16 22 17 19 16 3
19 17 16 15 16 20 2 3 3 3 4 4 2 4 3 4 4 5 3 4 3 1 5 9 6 3 4 3 4 5 1 6 3 3 7 6 4 6 8 13 15 14 15 9
16 16 16 14 13 19 3 2 2 2 2 3 2 2 7 3 3 2 3 2 3 2 2 4 4 4 6 6 2 5 6 5 4 3 5 7 1 4 5 6 8 14 14 16
17 16 15 13 12 15 4 2 5 2 2 1 2 3 4 5 5 4 2 1 3 2 2 3 3 3 3 8 10 7 3 4 8 6 3 6 3 6 6 7 1 11 14 16
14 16 15 13 12 15 5 1 7 3 2 1 1 1 2 3 4 5 4 3 2 3 2 3 3 3 4 4 7 10 9 7 5 5 7 9 7 5 7 4 10 12 14 12
18 17 15 14 12 13 9 2 3 2 1 2 1 1 2 4 2 6 4 1 8 6 4 3 2 3 3 6 6 1 8 6 4 8 3 2 0 3 2 8 13 9 13 10
18 17 16 14 13 12 11 3 5 2 3 1 2 1 1 1 3 2 3 2 3 4 1 3 2 3 3 6 4 5 3 3 3 5 2 0 2 5 6 10 10 10 11 12
15 17 16 14 11 10 11 3 4 1 3 2 2 2 1 5 4 1 1 4 5 5 2 2 3 2 3 2 3 2 1 9 7 2 1 4 3 6 10 11 12 12 9 8
15 18 16 13 11 9 5 1 2 1 1 3 3 1 4 5 3 5 6 6 4 2 2 2 2 3 4 1 1 3 7 7 6 3 14 2 15 12 11 14 12 11 12 8
18 17 15 13 11 12 2 3 2 2 1 3 4 2 2 4 7 8 7 4 3 2 2 2 2 1 1 4 4 2 6 4 1 2 10 3 14 13 9 11 10 8 9 8
20 18 14 13 13 3 1 1 3 3 2 2 3 2 1 2 1 2 2 3 3 1 2 2 3 2 2 2 4 5 9 6 5 10 12 9 12 8 9 11 10 10 9 7
21 18 14 15 15 8 2 2 2 3 4 2 4 1 1 2 2 2 3 1 1 4 2 1 2 3 2 4 5 7 10 8 10 5 4 5 13 13 12 11 10 10 8 7
22 22 20 5 1 2 2 6 3 2 2 4 2 5 3 1 2 1 2 2 2 1 1 1 2 3 6 6 8 14 14 12 14 8 9 10 12 11 10 10 8 7 7 6
28 8 3 3 3 5 6 3 2 4 3 2 2 1 3 1 1 2 2 2 2 1 1 1 2 5 5 4 4 10 13 12 15 13 7 8 7 9 9 8 7 6 6 6
2 4 3 1 2 2 3 3 2 1 1 2 3 2 5 0 3 3 1 2 1 3 1 2 2 5 4 3 7 8 10 13 8 4 7 9 12 13 11 8 7 6 6 6
6 9 6 3 2 3 5 3 2 4 5 4 5 4 3 2 0 3 1 3 1 3 2 2 5 3 2 5 7 10 11 10 6 5 12 9 10 9 9 7 7 7 6 6
3 5 5 3 1 4 9 11 5 5 7 5 5 5 4 2 2 4 2 3 2 3 3 5 4 2 3 5 7 9 10 9 10 11 9 11 10 8 6 7 4 6 5 4
4 4 8 7 6 6 6 5 5 2 5 10 7 5 4 2 2 3 4 2 4 3 4 6 1 3 6 5 6 11 10 10 10 10 9 9 9 7 6 5 5 5 5 5
2 2 4 3 4 3 2 1 4 2 8 8 6 5 4 3 4 1 4 5 5 6 5 2 2 7 8 9 10 11 10 9 8 8 8 7 7 6 5 4 4 4 4 4
2 3 4 3 4 2 2 3 3 1 8 3 3 4 4 3 5 5 7 7 7 3 3 2 6 9 8 9 10 9 8 8 8 6 5 6 5 5 5 4 3 3 3 4
2 2 3 2 2 3 4 2 3 1 6 3 3 5 3 5 3 4 4 6 1 2 2 5 6 9 9 9 9 8 8 8 7 6 5 5 5 6 5 5 3 3 4 4
Wind_Direction
215 203 208 227 193 143 142 172 226 140 149 160 204 222 205 210 209 198 197 226 198 191 182 184 187 190 210 186 190 198 226 234 158 157 20 196 191 182 200 203 174 239 339 154
214 194 196 217 173 158 149 207 153 162 170 225 207 233 232 241 254 177 173 194 207 181 177 172 196 197 215 187 179 191 182 206 142 139 172 31 200 183 208 210 300 206 223 169
209 186 190 211 189 177 160 172 176 141 216 260 261 213 241 236 223 198 187 194 200 174 180 186 190 205 180 192 192 206 181 215 210 205 207 153 193 199 203 213 222 202 226 231
203 184 187 206 181 172 152 190 220 171 191 238 241 248 279 189 222 215 183 181 198 175 172 187 181 185 173 180 197 206 236 227 208 215 180 182 192 192 201 216 224 227 241 232
198 181 185 192 179 167 164 200 201 185 265 225 218 221 220 235 185 186 169 173 196 181 170 192 185 176 173 176 194 203 218 215 191 185 183 210 218 213 207 214 223 236 250 247
203 182 184 189 176 156 182 151 210 264 219 208 163 222 228 197 168 95 342 169 169 183 171 217 183 178 164 178 178 189 193 186 194 201 154 172 245 222 214 218 223 225 234 242
278 182 185 188 179 180 177 167 186 204 260 234 185 272 266 174 256 100 30 162 177 128 119 113 103 101 111 151 144 189 197 201 269 124 155 220 310 16 225 220 226 227 246 243
305 184 185 190 190 191 164 142 213 217 259 251 184 222 122 116 46 63 55 59 7 9 194 118 109 65 53 354 26 40 204 164 93 184 220 316 213 197 174 185 234 217 224 168
265 183 188 191 201 192 148 166 166 216 278 217 85 152 170 150 104 64 9 29 307 298 126 122 138 175 131 169 201 71 64 26 130 182 230 222 52 153 166 170 256 180 173 154
189 183 188 192 197 181 151 171 179 200 226 174 158 202 190 136 101 90 136 296 37 308 77 124 141 134 141 158 162 168 127 137 202 209 270 283 148 149 167 188 43 151 156 153
251 186 188 189 193 185 156 125 187 237 197 298 232 347 224 146 152 150 154 119 357 62 103 107 176 144 174 153 153 173 163 158 181 179 228 255 145 130 201 81 126 135 133 132
298 184 187 189 190 185 172 144 167 192 216 17 319 56 312 301 36 132 187 288 152 179 114 180 139 137 166 166 176 154 185 212 197 208 211 30 147 343 67 151 137 133 124 126
293 184 184 186 189 192 178 138 144 185 145 131 223 177 352 298 6 322 162 199 138 169 65 147 132 136 165 174 190 126 216 190 192 177 160 294 193 123 124 129 122 121 122 128
284 183 180 180 183 202 168 174 170 209 123 161 125 273 37 327 331 205 314 122 113 103 181 125 140 152 233 162 92 201 99 160 147 99 124 122 184 159 139 123 121 117 108 122
245 177 173 174 174 182 138 123 194 211 282 135 134 123 17 5 26 71 96 110 101 128 114 87 104 100 156 76 156 193 192 158 188 197 175 178 172 159 150 139 140 139 133 126
187 166 166 163 159 147 148 164 207 179 172 137 145 53 40 45 76 77 69 64 69 64 90 102 104 83 241 166 202 136 169 183 304 119 144 67 138 140 148 133 134 127 125 124
161 157 156 153 148 110 226 129 110 154 118 126 90 128 47 337 57 58 44 41 71 69 116 110 135 146 177 245 206 161 174 163 121 130 118 108 159 155 141 126 116 106 96 102
152 143 139 127 111 116 81 64 111 174 106 57 103 129 186 334 94 102 348 71 60 28 79 139 165 149 187 239 214 159 149 136 141 106 23 132 118 116 112 116 126 122 128 127
136 126 116 93 81 117 175 145 110 60 99 123 123 151 178 147 79 87 64 347 75 346 123 157 216 167 220 215 187 184 169 169 155 101 95 107 113 124 130 132 138 141 160 170
129 109 110 138 186 111 131 22 66 23 3 55 107 111 130 72 110 77 96 10 96 136 86 325 236 250 250 213 221 175 169 142 138 118 109 114 125 149 156 171 168 168 169 170
94 120 103 76 98 92 36 85 117 71 4 165 127 146 133 275 121 125 348 134 36 170 154 228 260 259 237 172 142 136 132 151 153 127 133 153 152 158 163 162 160 164 166 177
150 113 101 107 86 68 112 156 153 202 207 152 145 123 107 110 74 103 21 106 184 180 117 203 251 251 69 138 120 125 135 138 119 125 138 136 140 143 140 143 163 172 165 151
81 67 97 141 253 131 180 181 195 192 166 166 160 123 113 123 66 77 126 132 138 127 201 233 241 73 124 134 125 120 120 112 108 99 98 109 111 114 125 133 127 142 149 158
77 141 144 195 174 211 182 187 164 137 136 138 128 108 118 123 101 139 121 113 154 186 234 236 236 170 140 135 129 137 125 118 119 118 121 120 123 119 107 104 125 137 160 168
125 150 147 147 90 65 87 91 116 143 145 134 112 86 99 114 122 105 122 159 216 222 231 225 164 148 139 135 139 130 125 127 127 131 130 129 129 130 121 114 125 131 126 162
72 86 116 120 135 128 149 147 124 175 148 103 72 121 116 131 144 155 195 177 218 223 196 134 135 137 127 124 125 119 118 126 124 129 132 126 125 127 115 109 111 135 171 174
67 79 63 97 58 133 146 147 125 104 169 135 129 128 127 118 133 192 197 209 214 149 136 135 145 137 129 120 117 120 119 118 117 119 113 109 113 121 132 144 108 120 102 98